Station Historical Data
Daily Summary for August 29, 2017 Units:  Metric    English   Both
« Previous Day
Next Day »
Daily Weekly Monthly Yearly Custom
  High: Low: Average:
Temperature: 23.6 °C 16.1 °C 18.9 °C
Dew Point: 14.6 °C 11.2 °C 12.4 °C
Humidity: 81% 49% 67%
Wind Speed: 11.3km/h 0km/h 2.1km/h
Wind Gust: 16.1km/h - -
Wind- - ESE
Pressure: 1021.2 hPa 1015.8 hPa -
Precipitation: 0 mm    
Historical Graphs
 
 
Tabular Data for August 29, 2017
Time Temperature Dew Point Pressure Wind Wind Speed Wind Gust Humidity Rainfall Rate (Hourly)
00:04 17.2 °C 11.9 °C 1021.2 hPa Calm   6.4 km/h 71% 0 mm
00:09 17.2 °C 11.9 °C 1021.2 hPa ESE 3.2 km/h 4.8 km/h 71% 0 mm
00:14 17.1 °C 11.8 °C 1021.2 hPa East 4.8 km/h 4.8 km/h 71% 0 mm
00:19 17.1 °C 11.8 °C 1021.2 hPa Calm   4.8 km/h 71% 0 mm
00:24 17 °C 11.9 °C 1021.2 hPa East 1.6 km/h 4.8 km/h 72% 0 mm
00:29 16.9 °C 11.8 °C 1021.2 hPa Calm   3.2 km/h 72% 0 mm
00:34 16.9 °C 11.8 °C 1021.2 hPa Calm   4.8 km/h 72% 0 mm
00:39 16.8 °C 11.8 °C 1021.2 hPa Calm   4.8 km/h 72% 0 mm
00:44 16.8 °C 11.9 °C 1021.2 hPa Calm   6.4 km/h 73% 0 mm
00:49 16.7 °C 11.7 °C 1021.2 hPa Calm   6.4 km/h 72% 0 mm
00:54 16.7 °C 11.8 °C 1021.2 hPa Calm   3.2 km/h 73% 0 mm
00:59 16.7 °C 11.8 °C 1021.2 hPa Calm   4.8 km/h 73% 0 mm
01:04 16.7 °C 11.8 °C 1020.9 hPa East 1.6 km/h 8 km/h 73% 0 mm
01:09 16.6 °C 11.7 °C 1021.2 hPa Calm   3.2 km/h 73% 0 mm
01:14 16.6 °C 11.7 °C 1021.2 hPa Calm   6.4 km/h 73% 0 mm
01:19 16.6 °C 11.7 °C 1021.2 hPa SE 4.8 km/h 4.8 km/h 73% 0 mm
01:24 16.6 °C 11.7 °C 1020.9 hPa Calm   8 km/h 73% 0 mm
01:29 16.5 °C 11.7 °C 1020.9 hPa Calm   8 km/h 73% 0 mm
01:34 16.5 °C 11.7 °C 1020.9 hPa Calm   4.8 km/h 73% 0 mm
01:39 16.5 °C 11.7 °C 1020.9 hPa ESE 1.6 km/h 4.8 km/h 73% 0 mm
01:44 16.4 °C 11.8 °C 1020.9 hPa Calm   4.8 km/h 74% 0 mm
01:49 16.4 °C 11.7 °C 1020.9 hPa ESE 1.6 km/h 6.4 km/h 74% 0 mm
01:54 16.4 °C 11.8 °C 1020.9 hPa ESE 1.6 km/h 6.4 km/h 74% 0 mm
01:59 16.4 °C 11.8 °C 1020.9 hPa Calm     74% 0 mm
02:04 16.4 °C 11.7 °C 1020.9 hPa Calm     74% 0 mm
02:09 16.4 °C 11.7 °C 1020.9 hPa Calm     74% 0 mm
02:14 16.4 °C 11.7 °C 1020.9 hPa Calm     74% 0 mm
02:19 16.4 °C 11.7 °C 1020.9 hPa ESE 3.2 km/h 4.8 km/h 74% 0 mm
02:24 16.3 °C 11.7 °C 1020.9 hPa Calm   4.8 km/h 74% 0 mm
02:29 16.4 °C 11.7 °C 1020.9 hPa Calm   4.8 km/h 74% 0 mm
02:34 16.4 °C 11.7 °C 1020.9 hPa Calm   3.2 km/h 74% 0 mm
02:39 16.4 °C 11.8 °C 1020.9 hPa ESE 1.6 km/h 8 km/h 74% 0 mm
02:44 16.4 °C 11.8 °C 1020.9 hPa ESE 1.6 km/h 8 km/h 74% 0 mm
02:49 16.4 °C 11.8 °C 1020.9 hPa ESE 1.6 km/h 4.8 km/h 74% 0 mm
02:54 16.4 °C 11.7 °C 1020.9 hPa Calm   4.8 km/h 74% 0 mm
02:59 16.3 °C 11.7 °C 1020.9 hPa Calm   8 km/h 74% 0 mm
03:04 16.4 °C 11.7 °C 1020.9 hPa Calm   6.4 km/h 74% 0 mm
03:09 16.3 °C 11.7 °C 1020.9 hPa SE 1.6 km/h 4.8 km/h 74% 0 mm
03:14 16.3 °C 11.7 °C 1020.9 hPa SE 1.6 km/h 4.8 km/h 74% 0 mm
03:19 16.3 °C 11.7 °C 1020.9 hPa Calm   4.8 km/h 74% 0 mm
03:24 16.3 °C 11.7 °C 1020.9 hPa Calm     74% 0 mm
03:29 16.3 °C 11.7 °C 1020.9 hPa Calm   3.2 km/h 74% 0 mm
03:34 16.3 °C 11.7 °C 1020.9 hPa Calm   8 km/h 74% 0 mm
03:39 16.3 °C 11.7 °C 1020.9 hPa Calm     74% 0 mm
03:44 16.3 °C 11.6 °C 1020.9 hPa Calm   3.2 km/h 74% 0 mm
03:49 16.3 °C 11.6 °C 1020.9 hPa Calm   3.2 km/h 74% 0 mm
03:54 16.3 °C 11.6 °C 1020.9 hPa Calm     74% 0 mm
03:59 16.3 °C 11.6 °C 1020.9 hPa Calm   4.8 km/h 74% 0 mm
04:04 16.3 °C 11.6 °C 1020.9 hPa Calm   4.8 km/h 74% 0 mm
04:09 16.3 °C 11.6 °C 1020.9 hPa Calm     74% 0 mm
04:14 16.3 °C 11.6 °C 1020.9 hPa Calm     74% 0 mm
04:19 16.3 °C 11.6 °C 1020.9 hPa Calm     74% 0 mm
04:24 16.3 °C 11.6 °C 1020.9 hPa Calm     74% 0 mm
04:29 16.3 °C 11.6 °C 1020.5 hPa Calm   4.8 km/h 74% 0 mm
04:34 16.2 °C 11.6 °C 1020.9 hPa Calm   3.2 km/h 74% 0 mm
04:39 16.2 °C 11.6 °C 1020.9 hPa Calm   6.4 km/h 74% 0 mm
04:44 16.3 °C 11.6 °C 1020.9 hPa Calm   1.6 km/h 74% 0 mm
04:49 16.2 °C 11.6 °C 1020.9 hPa Calm   1.6 km/h 74% 0 mm
04:54 16.2 °C 11.6 °C 1020.9 hPa Calm   6.4 km/h 74% 0 mm
04:59 16.2 °C 11.6 °C 1020.5 hPa Calm   6.4 km/h 74% 0 mm
05:04 16.2 °C 11.6 °C 1020.5 hPa ESE 3.2 km/h 3.2 km/h 74% 0 mm
05:09 16.2 °C 11.6 °C 1020.5 hPa Calm   6.4 km/h 74% 0 mm
05:14 16.2 °C 11.6 °C 1020.5 hPa Calm   4.8 km/h 74% 0 mm
05:19 16.2 °C 11.6 °C 1020.5 hPa ESE 1.6 km/h 4.8 km/h 74% 0 mm
05:24 16.2 °C 11.6 °C 1020.5 hPa ESE 1.6 km/h 6.4 km/h 74% 0 mm
05:29 16.2 °C 11.5 °C 1020.5 hPa ESE 1.6 km/h 6.4 km/h 74% 0 mm
05:34 16.2 °C 11.5 °C 1020.5 hPa ESE 1.6 km/h 4.8 km/h 74% 0 mm
05:39 16.1 °C 11.5 °C 1020.5 hPa Calm   6.4 km/h 74% 0 mm
05:44 16.2 °C 11.5 °C 1020.5 hPa Calm   8 km/h 74% 0 mm
05:49 16.2 °C 11.5 °C 1020.5 hPa ESE 1.6 km/h 8 km/h 74% 0 mm
05:54 16.2 °C 11.5 °C 1020.5 hPa East 4.8 km/h 8 km/h 74% 0 mm
05:59 16.2 °C 11.5 °C 1020.5 hPa ESE 4.8 km/h 9.7 km/h 74% 0 mm
06:04 16.2 °C 11.5 °C 1020.5 hPa Calm   4.8 km/h 74% 0 mm
06:09 16.2 °C 11.5 °C 1020.5 hPa East 1.6 km/h 4.8 km/h 74% 0 mm
06:14 16.2 °C 11.5 °C 1020.5 hPa ESE 1.6 km/h 6.4 km/h 74% 0 mm
06:19 16.1 °C 11.5 °C 1020.5 hPa ESE 1.6 km/h 8 km/h 74% 0 mm
06:24 16.1 °C 11.5 °C 1020.5 hPa ESE 1.6 km/h 8 km/h 74% 0 mm
06:29 16.1 °C 11.7 °C 1020.5 hPa Calm   6.4 km/h 75% 0 mm
06:34 16.2 °C 11.5 °C 1020.9 hPa ESE 1.6 km/h 8 km/h 74% 0 mm
06:39 16.2 °C 11.6 °C 1020.9 hPa ESE 3.2 km/h 9.7 km/h 74% 0 mm
06:44 16.3 °C 11.6 °C 1020.9 hPa ESE 3.2 km/h 9.7 km/h 74% 0 mm
06:49 16.3 °C 11.6 °C 1020.5 hPa ESE 3.2 km/h 8 km/h 74% 0 mm
06:54 16.3 °C 11.6 °C 1020.5 hPa South 3.2 km/h 12.9 km/h 74% 0 mm
06:59 16.3 °C 11.6 °C 1020.9 hPa SSE 11.3 km/h 11.3 km/h 74% 0 mm
07:04 16.3 °C 11.7 °C 1020.9 hPa South 3.2 km/h 11.3 km/h 74% 0 mm
07:09 16.3 °C 11.7 °C 1020.9 hPa Calm   9.7 km/h 74% 0 mm
07:14 16.4 °C 11.7 °C 1020.9 hPa SE 4.8 km/h 8 km/h 74% 0 mm
07:19 16.4 °C 11.7 °C 1020.9 hPa Calm   6.4 km/h 74% 0 mm
07:24 16.3 °C 11.7 °C 1020.9 hPa SE 1.6 km/h 8 km/h 74% 0 mm
07:29 16.4 °C 11.7 °C 1020.9 hPa SE 1.6 km/h 8 km/h 74% 0 mm
07:34 16.4 °C 11.8 °C 1020.9 hPa SE 1.6 km/h 6.4 km/h 74% 0 mm
07:39 16.5 °C 11.8 °C 1020.9 hPa Calm   1.6 km/h 74% 0 mm
07:44 16.6 °C 11.9 °C 1020.9 hPa Calm   4.8 km/h 74% 0 mm
07:49 16.6 °C 11.9 °C 1020.9 hPa Calm   3.2 km/h 74% 0 mm
07:54 16.7 °C 11.8 °C 1020.9 hPa Calm   4.8 km/h 73% 0 mm
07:59 16.7 °C 11.8 °C 1020.9 hPa SSE 4.8 km/h 8 km/h 73% 0 mm
08:04 16.8 °C 11.8 °C 1020.9 hPa SE 4.8 km/h 8 km/h 72% 0 mm
08:09 16.9 °C 11.8 °C 1020.9 hPa SSE 4.8 km/h 8 km/h 72% 0 mm
08:14 17 °C 11.7 °C 1020.9 hPa SSE 3.2 km/h 6.4 km/h 71% 0 mm
08:19 17.1 °C 11.6 °C 1020.9 hPa Calm   4.8 km/h 70% 0 mm
08:24 17.1 °C 11.6 °C 1020.9 hPa Calm   6.4 km/h 70% 0 mm
08:29 17.1 °C 11.6 °C 1020.9 hPa SE 3.2 km/h 6.4 km/h 70% 0 mm
08:34 17.2 °C 11.7 °C 1020.9 hPa SE 1.6 km/h 6.4 km/h 70% 0 mm
08:39 17.2 °C 11.5 °C 1020.9 hPa East 1.6 km/h 9.7 km/h 69% 0 mm
08:49 17.3 °C 11.6 °C 1020.9 hPa SE 1.6 km/h 4.8 km/h 69% 0 mm
08:54 17.4 °C 11.4 °C 1020.5 hPa SE 1.6 km/h 6.4 km/h 68% 0 mm
08:59 17.4 °C 11.5 °C 1020.9 hPa Calm   4.8 km/h 68% 0 mm
09:04 17.6 °C 11.3 °C 1020.9 hPa Calm   4.8 km/h 67% 0 mm
09:09 17.6 °C 11.4 °C 1020.9 hPa SE 1.6 km/h 8 km/h 67% 0 mm
09:14 17.7 °C 11.3 °C 1020.9 hPa ESE 3.2 km/h 4.8 km/h 66% 0 mm
09:19 17.8 °C 11.3 °C 1020.5 hPa Calm   8 km/h 66% 0 mm
09:24 17.9 °C 11.4 °C 1020.5 hPa SSE 3.2 km/h 4.8 km/h 66% 0 mm
09:29 17.9 °C 11.2 °C 1020.5 hPa ENE 4.8 km/h 8 km/h 65% 0 mm
09:34 18.1 °C 11.4 °C 1020.5 hPa SE 1.6 km/h 8 km/h 65% 0 mm
09:39 18.3 °C 11.6 °C 1020.9 hPa SE 1.6 km/h 6.4 km/h 65% 0 mm
09:44 18.2 °C 11.2 °C 1020.5 hPa SE 1.6 km/h 6.4 km/h 64% 0 mm
09:49 18.3 °C 11.6 °C 1020.5 hPa Calm   9.7 km/h 65% 0 mm
09:54 18.4 °C 11.4 °C 1020.5 hPa Calm   8 km/h 64% 0 mm
09:59 18.6 °C 11.4 °C 1020.5 hPa SE 3.2 km/h 6.4 km/h 63% 0 mm
10:04 18.6 °C 11.7 °C 1020.5 hPa SE 6.4 km/h 9.7 km/h 64% 0 mm
10:09 18.7 °C 11.2 °C 1020.5 hPa SSE 3.2 km/h 9.7 km/h 62% 0 mm
10:14 18.8 °C 11.6 °C 1020.5 hPa SSE 3.2 km/h 8 km/h 63% 0 mm
10:19 18.8 °C 11.2 °C 1020.5 hPa SE 3.2 km/h 8 km/h 61% 0 mm
10:24 18.9 °C 11.5 °C 1020.5 hPa SE 3.2 km/h 9.7 km/h 62% 0 mm
10:29 18.9 °C 11.4 °C 1020.5 hPa SE 6.4 km/h 11.3 km/h 62% 0 mm
10:34 18.8 °C 11.6 °C 1020.5 hPa SSE 4.8 km/h 11.3 km/h 63% 0 mm
10:39 19.1 °C 11.9 °C 1020.5 hPa SE 3.2 km/h 11.3 km/h 63% 0 mm
10:44 19.2 °C 11.7 °C 1020.5 hPa ESE 3.2 km/h 9.7 km/h 62% 0 mm
10:49 19.3 °C 12.1 °C 1020.5 hPa SSE 1.6 km/h 8 km/h 63% 0 mm
10:54 19.2 °C 11.7 °C 1020.5 hPa SSE 8 km/h 9.7 km/h 62% 0 mm
10:59 19.1 °C 11.9 °C 1020.5 hPa South 3.2 km/h 11.3 km/h 63% 0 mm
11:04 19.2 °C 11.7 °C 1020.5 hPa SE 3.2 km/h 9.7 km/h 62% 0 mm
11:09 19.1 °C 11.9 °C 1020.5 hPa SE 3.2 km/h 9.7 km/h 63% 0 mm
11:14 19.1 °C 12.1 °C 1020.5 hPa SSE 3.2 km/h 9.7 km/h 64% 0 mm
11:19 19.2 °C 12.2 °C 1020.5 hPa SSE 3.2 km/h 9.7 km/h 64% 0 mm
11:24 19.2 °C 12.2 °C 1020.2 hPa SE 3.2 km/h 9.7 km/h 64% 0 mm
11:29 19.3 °C 12.3 °C 1020.2 hPa ESE 3.2 km/h 9.7 km/h 64% 0 mm
11:34 19.4 °C 12.2 °C 1020.2 hPa SE 3.2 km/h 8 km/h 63% 0 mm
11:39 19.4 °C 12.9 °C 1020.2 hPa SE 3.2 km/h 8 km/h 66% 0 mm
11:44 19.5 °C 12.5 °C 1020.2 hPa South 8 km/h 11.3 km/h 64% 0 mm
11:49 19.4 °C 12.4 °C 1020.2 hPa ESE 3.2 km/h 11.3 km/h 64% 0 mm
11:54 19.4 °C 12.4 °C 1020.2 hPa SSE 4.8 km/h 9.7 km/h 64% 0 mm
11:59 19.5 °C 12.7 °C 1019.9 hPa Calm   11.3 km/h 65% 0 mm
12:04 19.6 °C 12.3 °C 1019.9 hPa ESE 1.6 km/h 8 km/h 63% 0 mm
12:09 19.6 °C 12.3 °C 1019.9 hPa SE 3.2 km/h 8 km/h 63% 0 mm
12:14 19.8 °C 12.8 °C 1019.9 hPa SE 3.2 km/h 8 km/h 64% 0 mm
12:19 20.1 °C 13.1 °C 1019.9 hPa SE 3.2 km/h 8 km/h 64% 0 mm
12:24 20 °C 12.7 °C 1019.5 hPa SSE 3.2 km/h 8 km/h 63% 0 mm
12:29 20.2 °C 12.9 °C 1019.5 hPa SSE 3.2 km/h 8 km/h 63% 0 mm
12:34 20.2 °C 13.2 °C 1019.5 hPa East 4.8 km/h 9.7 km/h 64% 0 mm
12:39 20.2 °C 13.2 °C 1019.5 hPa Calm   9.7 km/h 64% 0 mm
12:44 20.3 °C 12.8 °C 1019.5 hPa East 4.8 km/h 9.7 km/h 62% 0 mm
12:49 20.4 °C 12.7 °C 1019.5 hPa ENE 3.2 km/h 8 km/h 61% 0 mm
12:54 20.4 °C 12.9 °C 1019.2 hPa East 3.2 km/h 9.7 km/h 62% 0 mm
12:59 20.4 °C 12.9 °C 1019.2 hPa Calm   3.2 km/h 62% 0 mm
13:04 20.8 °C 13.5 °C 1019.2 hPa East 4.8 km/h 4.8 km/h 63% 0 mm
13:09 20.9 °C 13.3 °C 1019.2 hPa ESE 1.6 km/h 6.4 km/h 62% 0 mm
13:14 20.9 °C 12.8 °C 1019.2 hPa Calm   4.8 km/h 60% 0 mm
13:19 20.8 °C 13.1 °C 1019.2 hPa SE 1.6 km/h 8 km/h 61% 0 mm
13:24 21 °C 13.4 °C 1019.2 hPa ESE 3.2 km/h 11.3 km/h 62% 0 mm
13:29 21.1 °C 13.3 °C 1019.2 hPa NE 6.4 km/h 8 km/h 61% 0 mm
13:34 21.3 °C 13.5 °C 1019.2 hPa East 1.6 km/h 8 km/h 61% 0 mm
13:39 21.4 °C 13.6 °C 1018.8 hPa Calm   8 km/h 61% 0 mm
13:44 21.4 °C 13.3 °C 1018.8 hPa NE 1.6 km/h 8 km/h 60% 0 mm
13:54 21.8 °C 13.7 °C 1018.8 hPa SSE 4.8 km/h 12.9 km/h 60% 0 mm
13:59 21.9 °C 14.1 °C 1018.8 hPa SE 3.2 km/h 12.9 km/h 61% 0 mm
14:04 22.5 °C 14.1 °C 1018.8 hPa SSE 1.6 km/h 11.3 km/h 59% 0 mm
14:09 22.8 °C 14.1 °C 1018.8 hPa East 1.6 km/h 14.5 km/h 58% 0 mm
14:14 23.2 °C 14.2 °C 1018.5 hPa SSE 9.7 km/h 11.3 km/h 57% 0 mm
14:19 23.6 °C 14.6 °C 1018.5 hPa East 6.4 km/h 12.9 km/h 57% 0 mm
14:24 23.5 °C 13.9 °C 1018.5 hPa East 6.4 km/h 12.9 km/h 55% 0 mm
14:29 22.7 °C 13.8 °C 1018.5 hPa East 3.2 km/h 12.9 km/h 57% 0 mm
14:34 22.9 °C 14.2 °C 1018.5 hPa East 3.2 km/h 12.9 km/h 58% 0 mm
14:39 23.2 °C 14.2 °C 1018.5 hPa East 4.8 km/h 14.5 km/h 57% 0 mm
14:44 23.2 °C 13.9 °C 1018.5 hPa East 1.6 km/h 16.1 km/h 56% 0 mm
14:49 23.2 °C 14.2 °C 1018.2 hPa ENE 6.4 km/h 16.1 km/h 57% 0 mm
14:54 23.3 °C 13.7 °C 1018.2 hPa East 6.4 km/h 12.9 km/h 55% 0 mm
14:59 23.3 °C 14.3 °C 1018.2 hPa East 6.4 km/h 12.9 km/h 57% 0 mm
15:04 22.8 °C 13.8 °C 1018.2 hPa ENE 6.4 km/h 12.9 km/h 57% 0 mm
15:09 22.9 °C 12.2 °C 1018.2 hPa ESE 3.2 km/h 12.9 km/h 51% 0 mm
15:14 23 °C 12.3 °C 1018.2 hPa SSE 4.8 km/h 9.7 km/h 51% 0 mm
15:19 22.9 °C 12.6 °C 1017.8 hPa SSE 6.4 km/h 9.7 km/h 52% 0 mm
15:24 23 °C 12.3 °C 1017.8 hPa SE 3.2 km/h 11.3 km/h 51% 0 mm
15:29 23.1 °C 12.7 °C 1017.8 hPa SSE 4.8 km/h 14.5 km/h 52% 0 mm
15:34 22.9 °C 12.5 °C 1017.8 hPa Calm   6.4 km/h 52% 0 mm
15:39 22.9 °C 11.7 °C 1017.8 hPa Calm   8 km/h 49% 0 mm
15:44 22.7 °C 12.6 °C 1017.8 hPa SE 6.4 km/h 12.9 km/h 53% 0 mm
15:49 22.5 °C 12.7 °C 1017.8 hPa SE 3.2 km/h 11.3 km/h 54% 0 mm
15:54 22.6 °C 12.8 °C 1017.8 hPa ESE 4.8 km/h 11.3 km/h 54% 0 mm
15:59 22.7 °C 12.9 °C 1017.8 hPa ESE 3.2 km/h 9.7 km/h 54% 0 mm
16:04 22.6 °C 13.1 °C 1017.8 hPa SE 4.8 km/h 9.7 km/h 55% 0 mm
16:09 22.6 °C 13.4 °C 1017.8 hPa ESE 4.8 km/h 14.5 km/h 56% 0 mm
16:14 22.4 °C 13.2 °C 1017.8 hPa East 1.6 km/h 8 km/h 56% 0 mm
16:19 22.6 °C 13.4 °C 1017.5 hPa SE 3.2 km/h 8 km/h 56% 0 mm
16:24 22.6 °C 13.4 °C 1017.5 hPa ESE 3.2 km/h 14.5 km/h 56% 0 mm
16:29 22.4 °C 13.2 °C 1017.5 hPa ENE 4.8 km/h 14.5 km/h 56% 0 mm
16:34 22.4 °C 13.2 °C 1017.5 hPa East 3.2 km/h 11.3 km/h 56% 0 mm
16:39 22.4 °C 13.5 °C 1017.5 hPa ENE 3.2 km/h 8 km/h 57% 0 mm
16:44 22.5 °C 13.3 °C 1017.5 hPa NE 1.6 km/h 11.3 km/h 56% 0 mm
16:49 22.7 °C 13.2 °C 1017.5 hPa SE 4.8 km/h 9.7 km/h 55% 0 mm
16:54 22.6 °C 13.1 °C 1017.5 hPa ESE 3.2 km/h 9.7 km/h 55% 0 mm
16:59 22.6 °C 12.8 °C 1017.5 hPa ESE 1.6 km/h 8 km/h 54% 0 mm
17:04 22.4 °C 12.4 °C 1017.5 hPa ESE 3.2 km/h 8 km/h 53% 0 mm
17:09 22.4 °C 12.4 °C 1017.5 hPa ESE 3.2 km/h 8 km/h 53% 0 mm
17:14 22.4 °C 12.6 °C 1017.5 hPa East 3.2 km/h 11.3 km/h 54% 0 mm
17:19 22.3 °C 12.5 °C 1017.5 hPa East 4.8 km/h 11.3 km/h 54% 0 mm
17:24 22.2 °C 12.7 °C 1017.5 hPa East 3.2 km/h 11.3 km/h 55% 0 mm
17:29 22.1 °C 12.4 °C 1017.5 hPa ESE 3.2 km/h 11.3 km/h 54% 0 mm
17:34 22.1 °C 12.9 °C 1017.5 hPa NE 4.8 km/h 8 km/h 56% 0 mm
17:39 22.2 °C 12.9 °C 1017.5 hPa NE 3.2 km/h 9.7 km/h 56% 0 mm
17:44 22.2 °C 12.7 °C 1017.5 hPa ENE 11.3 km/h 12.9 km/h 55% 0 mm
17:49 22.3 °C 13.1 °C 1017.2 hPa ESE 1.6 km/h 11.3 km/h 56% 0 mm
17:54 22.4 °C 12.9 °C 1017.5 hPa ENE 8 km/h 16.1 km/h 55% 0 mm
17:59 22.6 °C 13.1 °C 1017.2 hPa East 4.8 km/h 16.1 km/h 55% 0 mm
18:04 22.6 °C 13.1 °C 1017.2 hPa ENE 4.8 km/h 11.3 km/h 55% 0 mm
18:09 22.5 °C 13.3 °C 1017.2 hPa ENE 4.8 km/h 11.3 km/h 56% 0 mm
18:14 22.4 °C 13.4 °C 1017.2 hPa East 1.6 km/h 12.9 km/h 57% 0 mm
18:19 22.4 °C 12.9 °C 1017.2 hPa ESE 1.6 km/h 8 km/h 55% 0 mm
18:24 22.4 °C 13.4 °C 1017.2 hPa East 4.8 km/h 12.9 km/h 57% 0 mm
18:29 22.2 °C 12.7 °C 1017.2 hPa East 4.8 km/h 12.9 km/h 55% 0 mm
18:34 22.1 °C 12.9 °C 1017.2 hPa East 3.2 km/h 11.3 km/h 56% 0 mm
18:39 21.9 °C 13 °C 1017.2 hPa ENE 3.2 km/h 11.3 km/h 57% 0 mm
18:44 21.7 °C 12.6 °C 1016.8 hPa NE 4.8 km/h 9.7 km/h 56% 0 mm
18:49 21.7 °C 12.8 °C 1016.8 hPa Calm   8 km/h 57% 0 mm
18:54 21.7 °C 12.8 °C 1016.8 hPa East 3.2 km/h 3.2 km/h 57% 0 mm
18:59 21.6 °C 12.7 °C 1016.8 hPa ENE 3.2 km/h 8 km/h 57% 0 mm
19:04 21.4 °C 12.8 °C 1016.8 hPa ENE 4.8 km/h 8 km/h 58% 0 mm
19:09 21.4 °C 13.1 °C 1016.8 hPa ENE 3.2 km/h 8 km/h 59% 0 mm
19:14 21.3 °C 13.2 °C 1016.8 hPa East 3.2 km/h 8 km/h 60% 0 mm
19:19 21.2 °C 12.9 °C 1016.8 hPa NE 1.6 km/h 6.4 km/h 59% 0 mm
19:24 21.2 °C 12.8 °C 1016.8 hPa NE 1.6 km/h 4.8 km/h 59% 0 mm
19:29 21.1 °C 13 °C 1016.8 hPa ENE 1.6 km/h 8 km/h 60% 0 mm
19:34 20.9 °C 12.9 °C 1016.8 hPa ENE 3.2 km/h 9.7 km/h 60% 0 mm
19:39 20.8 °C 13.1 °C 1016.8 hPa ENE 3.2 km/h 9.7 km/h 61% 0 mm
19:44 20.7 °C 13.4 °C 1016.5 hPa ENE 3.2 km/h 9.7 km/h 63% 0 mm
19:49 20.6 °C 13.8 °C 1016.5 hPa ENE 3.2 km/h 9.7 km/h 65% 0 mm
19:54 20.4 °C 13.8 °C 1016.5 hPa ENE 1.6 km/h 8 km/h 66% 0 mm
19:59 20.3 °C 13.9 °C 1016.5 hPa ENE 1.6 km/h 9.7 km/h 67% 0 mm
20:04 20.2 °C 14.1 °C 1016.5 hPa ENE 6.4 km/h 6.4 km/h 68% 0 mm
20:09 20.1 °C 14 °C 1016.5 hPa Calm   6.4 km/h 68% 0 mm
20:14 20 °C 13.9 °C 1016.5 hPa Calm   3.2 km/h 68% 0 mm
20:19 20 °C 13.9 °C 1016.5 hPa Calm   6.4 km/h 68% 0 mm
20:24 19.9 °C 13.8 °C 1016.5 hPa NE 4.8 km/h 8 km/h 68% 0 mm
20:29 19.9 °C 13.8 °C 1016.5 hPa NE 1.6 km/h 9.7 km/h 68% 0 mm
20:34 19.8 °C 13.8 °C 1016.5 hPa NE 3.2 km/h 9.7 km/h 68% 0 mm
20:39 19.8 °C 13.9 °C 1016.5 hPa NE 1.6 km/h 6.4 km/h 69% 0 mm
20:49 19.6 °C 13.7 °C 1016.5 hPa NE 1.6 km/h 4.8 km/h 69% 0 mm
20:54 19.6 °C 13.7 °C 1016.5 hPa ENE 3.2 km/h 9.7 km/h 69% 0 mm
20:59 19.6 °C 13.7 °C 1016.5 hPa ENE 3.2 km/h 6.4 km/h 69% 0 mm
21:04 19.5 °C 13.7 °C 1016.5 hPa ENE 3.2 km/h 8 km/h 69% 0 mm
21:09 19.5 °C 13.7 °C 1016.5 hPa East 3.2 km/h 9.7 km/h 69% 0 mm
21:14 19.4 °C 13.6 °C 1016.5 hPa Calm   4.8 km/h 69% 0 mm
21:19 19.2 °C 13.6 °C 1016.5 hPa East 3.2 km/h 11.3 km/h 70% 0 mm
21:24 19.1 °C 13.5 °C 1016.5 hPa ENE 1.6 km/h 11.3 km/h 70% 0 mm
21:29 19 °C 13.6 °C 1016.5 hPa East 1.6 km/h 6.4 km/h 71% 0 mm
21:34 18.9 °C 13.7 °C 1016.5 hPa ENE 3.2 km/h 6.4 km/h 72% 0 mm
21:39 18.8 °C 13.7 °C 1016.5 hPa ENE 1.6 km/h 6.4 km/h 72% 0 mm
21:44 18.7 °C 13.8 °C 1016.5 hPa Calm   6.4 km/h 73% 0 mm
21:54 18.6 °C 13.7 °C 1016.5 hPa Calm     73% 0 mm
21:59 18.5 °C 13.6 °C 1016.5 hPa Calm   4.8 km/h 73% 0 mm
22:04 18.6 °C 13.8 °C 1016.5 hPa Calm   4.8 km/h 74% 0 mm
22:09 18.6 °C 13.8 °C 1016.5 hPa Calm     74% 0 mm
22:14 18.5 °C 13.8 °C 1016.5 hPa Calm     74% 0 mm
22:19 18.4 °C 13.7 °C 1016.1 hPa Calm     74% 0 mm
22:24 18.3 °C 13.6 °C 1016.1 hPa Calm     74% 0 mm
22:29 18.2 °C 13.5 °C 1016.1 hPa Calm     74% 0 mm
22:34 18.1 °C 13.6 °C 1016.1 hPa Calm     75% 0 mm
22:39 17.9 °C 13.4 °C 1016.1 hPa Calm     75% 0 mm
22:44 17.8 °C 13.6 °C 1016.1 hPa Calm     76% 0 mm
22:49 17.7 °C 13.4 °C 1016.1 hPa Calm     76% 0 mm
22:54 17.6 °C 13.3 °C 1016.1 hPa Calm     76% 0 mm
22:59 17.6 °C 13.3 °C 1016.1 hPa Calm     76% 0 mm
23:04 17.4 °C 13.4 °C 1016.1 hPa Calm     77% 0 mm
23:09 17.3 °C 13.3 °C 1016.1 hPa Calm     77% 0 mm
23:14 17.2 °C 13.2 °C 1015.8 hPa Calm     77% 0 mm
23:19 17.1 °C 13.2 °C 1016.1 hPa Calm     78% 0 mm
23:24 17 °C 13.1 °C 1016.1 hPa Calm     78% 0 mm
23:29 16.9 °C 13.1 °C 1015.8 hPa Calm     78% 0 mm
23:34 16.7 °C 12.9 °C 1015.8 hPa Calm     78% 0 mm
23:39 16.4 °C 12.8 °C 1015.8 hPa Calm     79% 0 mm
23:44 16.3 °C 12.8 °C 1016.1 hPa Calm     80% 0 mm
23:49 16.3 °C 13 °C 1016.1 hPa Calm     81% 0 mm
23:54 16.2 °C 12.9 °C 1016.1 hPa Calm     81% 0 mm
23:59 16.1 °C 12.8 °C 1016.1 hPa Calm     81% 0 mm
Buffalo, New York, USA
Compliments of Weather Underground - 2.5 mb